QPF
0.00 0.01 0.01 0.01 0.00 0.00 0.01 0.01 0.03 0.03 0.02 0.02 0.01 0.02 0.02 0.02 0.01 0.01 0.01 0.01 0.01 0.01 0.01 0.01 0.02 0.02 0.02 0.01 0.01 0.01 0.01 0.01 0.01 0.01 0.01 0.01 0.02 0.02 0.02 0.02 0.04 0.04 0.06
0.01 0.01 0.00 0.01 0.01 0.01 0.01 0.01 0.02 0.02 0.02 0.02 0.02 0.02 0.02 0.02 0.01 0.02 0.02 0.02 0.02 0.02 0.02 0.02 0.01 0.01 0.01 0.01 0.01 0.02 0.01 0.01 0.02 0.03 0.03 0.02 0.02 0.03 0.03 0.03 0.03 0.04 0.04
0.01 0.01 0.01 0.01 0.01 0.02 0.03 0.02 0.02 0.02 0.02 0.02 0.02 0.03 0.03 0.04 0.03 0.03 0.02 0.02 0.02 0.02 0.02 0.02 0.03 0.03 0.02 0.02 0.02 0.03 0.02 0.02 0.03 0.04 0.04 0.03 0.03 0.02 0.02 0.04 0.04 0.05 0.07
0.03 0.03 0.02 0.02 0.04 0.05 0.05 0.04 0.03 0.02 0.02 0.03 0.03 0.03 0.04 0.04 0.05 0.04 0.04 0.04 0.04 0.05 0.04 0.04 0.04 0.04 0.03 0.03 0.04 0.03 0.02 0.02 0.03 0.04 0.03 0.03 0.03 0.03 0.02 0.03 0.03 0.04 0.06
0.03 0.03 0.03 0.04 0.07 0.12 0.12 0.07 0.04 0.04 0.04 0.04 0.04 0.04 0.03 0.03 0.04 0.05 0.09 0.09 0.09 0.09 0.07 0.06 0.05 0.05 0.04 0.03 0.04 0.04 0.03 0.03 0.02 0.02 0.03 0.02 0.03 0.03 0.02 0.02 0.02 0.04 0.04
0.03 0.02 0.02 0.04 0.09 0.13 0.15 0.12 0.08 0.07 0.07 0.06 0.04 0.05 0.03 0.03 0.03 0.05 0.07 0.09 0.10 0.10 0.08 0.07 0.05 0.05 0.04 0.04 0.04 0.05 0.04 0.03 0.03 0.02 0.03 0.03 0.02 0.02 0.02 0.01 0.02 0.02 0.03
0.03 0.03 0.03 0.03 0.06 0.08 0.13 0.15 0.17 0.20 0.14 0.08 0.06 0.06 0.03 0.03 0.03 0.04 0.06 0.08 0.09 0.09 0.07 0.07 0.07 0.07 0.06 0.05 0.05 0.05 0.04 0.03 0.02 0.02 0.02 0.03 0.02 0.02 0.02 0.03 0.02 0.02 0.02
0.02 0.01 0.02 0.03 0.04 0.06 0.07 0.10 0.14 0.16 0.12 0.10 0.11 0.12 0.07 0.04 0.03 0.03 0.04 0.06 0.06 0.06 0.07 0.08 0.08 0.07 0.06 0.06 0.05 0.05 0.03 0.02 0.02 0.02 0.02 0.03 0.03 0.03 0.04 0.05 0.04 0.03 0.02
0.02 0.02 0.02 0.03 0.05 0.06 0.05 0.06 0.06 0.05 0.05 0.05 0.05 0.07 0.06 0.05 0.05 0.06 0.06 0.05 0.05 0.05 0.05 0.05 0.06 0.06 0.05 0.04 0.03 0.03 0.02 0.02 0.02 0.02 0.02 0.02 0.02 0.02 0.03 0.04 0.07 0.05 0.02
0.05 0.05 0.04 0.05 0.06 0.05 0.04 0.02 0.01 0.01 0.01 0.01 0.02 0.02 0.03 0.03 0.03 0.08 0.09 0.06 0.06 0.06 0.04 0.03 0.03 0.03 0.03 0.02 0.02 0.02 0.02 0.02 0.02 0.02 0.02 0.02 0.02 0.01 0.01 0.02 0.05 0.07 0.04
0.07 0.07 0.05 0.05 0.05 0.04 0.03 0.02 0.02 0.02 0.02 0.02 0.02 0.02 0.02 0.02 0.03 0.04 0.05 0.06 0.07 0.07 0.06 0.03 0.02 0.02 0.03 0.02 0.01 0.01 0.01 0.01 0.02 0.02 0.02 0.02 0.02 0.02 0.01 0.01 0.03 0.04 0.04
0.06 0.06 0.05 0.04 0.05 0.06 0.05 0.04 0.04 0.04 0.04 0.03 0.03 0.03 0.03 0.03 0.05 0.05 0.06 0.08 0.09 0.09 0.06 0.03 0.03 0.03 0.03 0.02 0.02 0.02 0.01 0.01 0.02 0.02 0.02 0.01 0.02 0.02 0.02 0.02 0.02 0.02 0.03
0.04 0.04 0.06 0.05 0.06 0.07 0.08 0.07 0.06 0.05 0.07 0.07 0.05 0.05 0.04 0.06 0.05 0.04 0.04 0.05 0.05 0.04 0.03 0.03 0.03 0.03 0.03 0.02 0.01 0.01 0.02 0.02 0.01 0.01 0.01 0.01 0.02 0.02 0.02 0.02 0.01 0.01 0.01
0.02 0.03 0.04 0.04 0.07 0.10 0.10 0.08 0.06 0.05 0.05 0.06 0.09 0.10 0.07 0.05 0.02 0.02 0.03 0.04 0.05 0.03 0.02 0.02 0.01 0.02 0.02 0.03 0.02 0.01 0.01 0.01 0.01 0.01 0.02 0.02 0.01 0.01 0.01 0.01 0.01 0.02 0.02
0.01 0.01 0.02 0.02 0.02 0.04 0.06 0.06 0.05 0.05 0.03 0.04 0.04 0.03 0.03 0.02 0.02 0.02 0.03 0.03 0.03 0.02 0.03 0.02 0.01 0.01 0.01 0.02 0.02 0.01 0.01 0.01 0.01 0.02 0.01 0.01 0.01 0.01 0.01 0.01 0.02 0.03 0.03
0.01 0.01 0.01 0.02 0.02 0.01 0.01 0.02 0.02 0.02 0.02 0.01 0.01 0.01 0.01 0.01 0.01 0.01 0.03 0.03 0.02 0.02 0.02 0.01 0.01 0.01 0.01 0.01 0.02 0.01 0.01 0.00 0.01 0.01 0.00 0.00 0.01 0.00 0.00 0.01 0.01 0.02 0.02
0.01 0.01 0.01 0.01 0.01 0.01 0.01 0.01 0.01 0.01 0.01 0.01 0.01 0.01 0.01 0.01 0.01 0.01 0.01 0.01 0.01 0.02 0.02 0.01 0.02 0.02 0.01 0.02 0.03 0.03 0.01 0.01 0.01 0.00 0.00 0.00 0.01 0.01 0.00 0.01 0.01 0.02 0.03
0.01 0.01 0.01 0.00 0.00 0.00 0.01 0.01 0.00 0.00 0.01 0.01 0.01 0.01 0.01 0.01 0.01 0.01 0.01 0.01 0.01 0.02 0.02 0.02 0.02 0.02 0.02 0.03 0.03 0.04 0.03 0.01 0.00 0.00 0.00 0.01 0.02 0.02 0.01 0.02 0.02 0.01 0.01
0.01 0.02 0.02 0.01 0.01 0.00 0.00 0.00 0.00 0.00 0.00 0.00 0.01 0.01 0.01 0.01 0.01 0.01 0.01 0.01 0.01 0.01 0.02 0.01 0.01 0.02 0.01 0.02 0.03 0.05 0.04 0.02 0.02 0.01 0.01 0.02 0.02 0.02 0.02 0.01 0.01 0.01 0.00
0.01 0.01 0.01 0.01 0.02 0.01 0.01 0.00 0.00 0.00 0.00 0.00 0.01 0.01 0.01 0.01 0.01 0.00 0.01 0.01 0.01 0.01 0.01 0.01 0.02 0.02 0.01 0.02 0.03 0.04 0.04 0.03 0.03 0.02 0.02 0.03 0.03 0.03 0.03 0.02 0.01 0.00 0.01
0.01 0.01 0.01 0.02 0.02 0.02 0.03 0.03 0.01 0.01 0.01 0.01 0.00 0.00 0.00 0.00 0.01 0.01 0.01 0.01 0.01 0.02 0.03 0.04 0.04 0.03 0.02 0.02 0.03 0.03 0.02 0.02 0.03 0.02 0.02 0.03 0.03 0.03 0.02 0.03 0.02 0.01 0.03
0.01 0.03 0.02 0.02 0.03 0.02 0.03 0.04 0.03 0.02 0.01 0.01 0.01 0.01 0.01 0.01 0.01 0.01 0.01 0.02 0.03 0.04 0.05 0.05 0.04 0.03 0.03 0.03 0.02 0.02 0.03 0.03 0.03 0.03 0.02 0.02 0.03 0.03 0.03 0.03 0.03 0.04 0.04
0.02 0.03 0.02 0.02 0.02 0.02 0.03 0.02 0.02 0.02 0.02 0.02 0.01 0.01 0.01 0.01 0.01 0.01 0.02 0.03 0.05 0.05 0.05 0.05 0.04 0.04 0.04 0.03 0.03 0.04 0.04 0.05 0.04 0.04 0.04 0.05 0.05 0.04 0.03 0.03 0.04 0.04 0.04
0.02 0.02 0.03 0.04 0.04 0.04 0.05 0.05 0.04 0.04 0.03 0.03 0.02 0.02 0.02 0.02 0.02 0.03 0.05 0.06 0.07 0.06 0.06 0.06 0.06 0.06 0.07 0.07 0.06 0.06 0.06 0.06 0.06 0.05 0.05 0.06 0.06 0.05 0.04 0.03 0.03 0.03 0.04
0.02 0.03 0.04 0.06 0.06 0.05 0.05 0.04 0.05 0.05 0.05 0.05 0.04 0.04 0.04 0.03 0.04 0.06 0.07 0.07 0.06 0.06 0.07 0.08 0.09 0.09 0.08 0.07 0.07 0.07 0.07 0.07 0.06 0.06 0.06 0.06 0.06 0.05 0.04 0.04 0.04 0.03 0.04
0.01 0.02 0.02 0.02 0.03 0.03 0.03 0.03 0.04 0.04 0.05 0.05 0.05 0.05 0.05 0.05 0.05 0.06 0.06 0.06 0.05 0.05 0.05 0.05 0.06 0.06 0.06 0.05 0.04 0.04 0.04 0.04 0.04 0.04 0.04 0.04 0.04 0.04 0.04 0.04 0.04 0.05 0.05
MSLP
1012.87 1012.66 1012.44 1012.18 1011.90 1011.61 1011.35 1011.14 1011.02 1010.99 1011.05 1011.16 1011.29 1011.40 1011.44 1011.40 1011.28 1011.09 1010.86 1010.62 1010.41 1010.26 1010.16 1010.10 1010.07 1010.04 1009.96 1009.83 1009.63 1009.36 1009.04 1008.69 1008.34 1007.99 1007.67 1007.37 1007.08 1006.80 1006.52 1006.25 1006.00 1005.78 1005.63
1012.98 1012.81 1012.63 1012.40 1012.15 1011.88 1011.63 1011.45 1011.36 1011.38 1011.49 1011.66 1011.84 1011.98 1012.04 1011.99 1011.82 1011.58 1011.28 1011.00 1010.75 1010.57 1010.47 1010.43 1010.42 1010.41 1010.35 1010.23 1010.02 1009.75 1009.43 1009.08 1008.74 1008.43 1008.15 1007.89 1007.66 1007.41 1007.15 1006.86 1006.56 1006.26 1005.98
1013.01 1012.89 1012.77 1012.60 1012.39 1012.16 1011.95 1011.81 1011.76 1011.83 1011.99 1012.21 1012.43 1012.59 1012.66 1012.59 1012.40 1012.11 1011.77 1011.44 1011.16 1010.96 1010.84 1010.80 1010.80 1010.78 1010.72 1010.59 1010.38 1010.10 1009.78 1009.46 1009.15 1008.88 1008.66 1008.48 1008.31 1008.11 1007.88 1007.59 1007.25 1006.86 1006.47
1012.92 1012.86 1012.80 1012.70 1012.56 1012.39 1012.23 1012.13 1012.13 1012.24 1012.45 1012.70 1012.96 1013.14 1013.22 1013.15 1012.95 1012.64 1012.28 1011.92 1011.62 1011.39 1011.26 1011.20 1011.17 1011.14 1011.06 1010.91 1010.68 1010.40 1010.08 1009.77 1009.50 1009.29 1009.14 1009.03 1008.92 1008.78 1008.59 1008.31 1007.93 1007.49 1006.99
1012.69 1012.69 1012.70 1012.68 1012.60 1012.50 1012.39 1012.34 1012.39 1012.53 1012.77 1013.06 1013.34 1013.55 1013.65 1013.60 1013.41 1013.11 1012.75 1012.39 1012.07 1011.83 1011.68 1011.59 1011.53 1011.46 1011.34 1011.16 1010.91 1010.61 1010.29 1010.00 1009.76 1009.60 1009.50 1009.45 1009.40 1009.32 1009.16 1008.89 1008.51 1008.02 1007.46
1012.36 1012.41 1012.48 1012.53 1012.52 1012.47 1012.42 1012.41 1012.48 1012.66 1012.92 1013.23 1013.54 1013.78 1013.90 1013.89 1013.73 1013.47 1013.13 1012.79 1012.49 1012.24 1012.07 1011.95 1011.85 1011.73 1011.57 1011.34 1011.06 1010.74 1010.41 1010.13 1009.91 1009.77 1009.71 1009.69 1009.69 1009.64 1009.51 1009.26 1008.89 1008.39 1007.80
1011.99 1012.08 1012.20 1012.29 1012.34 1012.33 1012.32 1012.34 1012.43 1012.62 1012.90 1013.22 1013.55 1013.82 1013.98 1014.01 1013.91 1013.70 1013.41 1013.11 1012.83 1012.59 1012.41 1012.26 1012.12 1011.96 1011.75 1011.48 1011.16 1010.81 1010.47 1010.18 1009.96 1009.83 1009.78 1009.77 1009.78 1009.75 1009.64 1009.41 1009.05 1008.57 1007.99
1011.64 1011.76 1011.92 1012.05 1012.13 1012.15 1012.16 1012.20 1012.30 1012.49 1012.77 1013.10 1013.44 1013.73 1013.93 1014.01 1013.97 1013.82 1013.60 1013.34 1013.10 1012.88 1012.69 1012.53 1012.36 1012.15 1011.90 1011.59 1011.24 1010.87 1010.51 1010.20 1009.97 1009.82 1009.74 1009.72 1009.71 1009.67 1009.56 1009.35 1009.02 1008.58 1008.04
1011.36 1011.51 1011.70 1011.86 1011.96 1012.01 1012.03 1012.07 1012.17 1012.36 1012.63 1012.96 1013.30 1013.61 1013.84 1013.96 1013.97 1013.88 1013.72 1013.52 1013.31 1013.12 1012.94 1012.76 1012.57 1012.34 1012.06 1011.73 1011.36 1010.96 1010.59 1010.26 1009.99 1009.80 1009.69 1009.62 1009.56 1009.49 1009.35 1009.14 1008.83 1008.44 1007.96
1011.20 1011.38 1011.59 1011.77 1011.88 1011.94 1011.97 1012.02 1012.13 1012.31 1012.57 1012.89 1013.23 1013.54 1013.78 1013.93 1013.98 1013.93 1013.82 1013.67 1013.50 1013.33 1013.16 1012.99 1012.79 1012.55 1012.25 1011.91 1011.53 1011.13 1010.73 1010.38 1010.08 1009.84 1009.66 1009.52 1009.39 1009.26 1009.08 1008.85 1008.55 1008.19 1007.77
1011.12 1011.34 1011.57 1011.76 1011.89 1011.97 1012.02 1012.08 1012.20 1012.39 1012.65 1012.96 1013.29 1013.59 1013.82 1013.98 1014.04 1014.02 1013.93 1013.81 1013.66 1013.52 1013.36 1013.19 1013.00 1012.76 1012.47 1012.13 1011.76 1011.36 1010.96 1010.59 1010.25 1009.96 1009.70 1009.47 1009.26 1009.04 1008.79 1008.52 1008.21 1007.87 1007.49
1011.08 1011.33 1011.58 1011.79 1011.94 1012.03 1012.11 1012.21 1012.36 1012.57 1012.84 1013.15 1013.47 1013.75 1013.97 1014.11 1014.16 1014.13 1014.05 1013.94 1013.81 1013.67 1013.53 1013.37 1013.19 1012.96 1012.69 1012.37 1012.01 1011.63 1011.23 1010.84 1010.47 1010.13 1009.80 1009.48 1009.16 1008.84 1008.51 1008.18 1007.83 1007.49 1007.14
1011.00 1011.27 1011.54 1011.76 1011.93 1012.06 1012.19 1012.34 1012.54 1012.79 1013.09 1013.41 1013.72 1013.98 1014.17 1014.28 1014.30 1014.26 1014.16 1014.04 1013.91 1013.78 1013.64 1013.49 1013.32 1013.11 1012.86 1012.57 1012.23 1011.87 1011.49 1011.09 1010.70 1010.30 1009.90 1009.50 1009.08 1008.66 1008.24 1007.83 1007.43 1007.05 1006.71
1010.81 1011.09 1011.35 1011.58 1011.78 1011.96 1012.15 1012.37 1012.64 1012.95 1013.29 1013.63 1013.94 1014.18 1014.35 1014.42 1014.41 1014.33 1014.22 1014.08 1013.94 1013.80 1013.67 1013.53 1013.37 1013.19 1012.96 1012.69 1012.38 1012.04 1011.66 1011.27 1010.85 1010.42 1009.96 1009.48 1008.98 1008.47 1007.96 1007.46 1007.00 1006.59 1006.23
1010.46 1010.72 1010.98 1011.21 1011.44 1011.67 1011.93 1012.24 1012.59 1012.97 1013.37 1013.74 1014.05 1014.29 1014.43 1014.47 1014.42 1014.32 1014.18 1014.03 1013.88 1013.74 1013.62 1013.49 1013.34 1013.17 1012.96 1012.71 1012.42 1012.09 1011.73 1011.33 1010.90 1010.44 1009.94 1009.40 1008.84 1008.25 1007.66 1007.10 1006.58 1006.12 1005.74
1009.98 1010.21 1010.44 1010.67 1010.92 1011.20 1011.54 1011.93 1012.36 1012.82 1013.27 1013.68 1014.01 1014.24 1014.36 1014.38 1014.32 1014.20 1014.05 1013.90 1013.75 1013.62 1013.50 1013.38 1013.25 1013.08 1012.88 1012.64 1012.36 1012.03 1011.67 1011.28 1010.84 1010.36 1009.83 1009.26 1008.65 1008.02 1007.38 1006.76 1006.20 1005.71 1005.30
1009.42 1009.60 1009.80 1010.03 1010.30 1010.63 1011.03 1011.49 1012.00 1012.52 1013.03 1013.46 1013.81 1014.05 1014.17 1014.18 1014.11 1013.99 1013.85 1013.71 1013.58 1013.47 1013.37 1013.26 1013.13 1012.97 1012.77 1012.53 1012.24 1011.91 1011.55 1011.14 1010.70 1010.21 1009.67 1009.08 1008.46 1007.80 1007.14 1006.50 1005.92 1005.41 1004.99
1008.89 1009.02 1009.19 1009.41 1009.70 1010.07 1010.52 1011.04 1011.60 1012.17 1012.71 1013.16 1013.52 1013.76 1013.88 1013.90 1013.85 1013.75 1013.63 1013.52 1013.42 1013.34 1013.26 1013.17 1013.06 1012.90 1012.70 1012.44 1012.14 1011.80 1011.42 1011.00 1010.55 1010.06 1009.52 1008.94 1008.31 1007.67 1007.01 1006.38 1005.80 1005.29 1004.87
1008.50 1008.59 1008.75 1008.97 1009.27 1009.67 1010.15 1010.70 1011.29 1011.87 1012.41 1012.87 1013.23 1013.46 1013.59 1013.62 1013.59 1013.52 1013.45 1013.38 1013.32 1013.28 1013.23 1013.17 1013.06 1012.91 1012.70 1012.43 1012.11 1011.75 1011.36 1010.93 1010.47 1009.97 1009.44 1008.87 1008.27 1007.65 1007.03 1006.42 1005.87 1005.37 1004.96
1008.30 1008.39 1008.55 1008.78 1009.10 1009.52 1010.01 1010.57 1011.15 1011.72 1012.24 1012.67 1013.00 1013.23 1013.35 1013.39 1013.39 1013.35 1013.32 1013.30 1013.29 1013.29 1013.28 1013.23 1013.14 1013.00 1012.78 1012.51 1012.18 1011.80 1011.39 1010.95 1010.48 1009.99 1009.47 1008.93 1008.36 1007.78 1007.20 1006.63 1006.11 1005.65 1005.26
1008.34 1008.44 1008.62 1008.88 1009.22 1009.64 1010.13 1010.66 1011.21 1011.74 1012.21 1012.59 1012.89 1013.08 1013.19 1013.24 1013.24 1013.24 1013.25 1013.26 1013.30 1013.33 1013.35 1013.33 1013.26 1013.13 1012.92 1012.65 1012.31 1011.93 1011.52 1011.07 1010.61 1010.12 1009.62 1009.10 1008.56 1008.02 1007.48 1006.97 1006.50 1006.07 1005.71
1008.56 1008.70 1008.91 1009.19 1009.55 1009.97 1010.43 1010.93 1011.42 1011.89 1012.29 1012.61 1012.85 1013.00 1013.09 1013.13 1013.14 1013.15 1013.18 1013.22 1013.28 1013.34 1013.38 1013.39 1013.33 1013.22 1013.03 1012.77 1012.46 1012.09 1011.69 1011.25 1010.80 1010.32 1009.84 1009.34 1008.83 1008.33 1007.83 1007.37 1006.94 1006.55 1006.22
1008.87 1009.06 1009.31 1009.61 1009.97 1010.37 1010.81 1011.25 1011.68 1012.06 1012.39 1012.65 1012.82 1012.93 1012.99 1013.00 1013.01 1013.02 1013.05 1013.10 1013.17 1013.24 1013.29 1013.31 1013.28 1013.19 1013.04 1012.81 1012.53 1012.20 1011.83 1011.42 1010.99 1010.53 1010.07 1009.59 1009.11 1008.64 1008.18 1007.75 1007.36 1007.01 1006.71
1009.18 1009.40 1009.67 1009.98 1010.33 1010.71 1011.09 1011.48 1011.83 1012.15 1012.40 1012.60 1012.72 1012.79 1012.81 1012.81 1012.80 1012.80 1012.82 1012.86 1012.91 1012.97 1013.02 1013.05 1013.04 1012.98 1012.87 1012.70 1012.47 1012.20 1011.88 1011.51 1011.12 1010.70 1010.25 1009.80 1009.34 1008.89 1008.46 1008.07 1007.71 1007.40 1007.12
1009.38 1009.61 1009.87 1010.17 1010.49 1010.82 1011.15 1011.47 1011.77 1012.02 1012.23 1012.38 1012.47 1012.51 1012.52 1012.51 1012.48 1012.46 1012.46 1012.47 1012.50 1012.53 1012.57 1012.60 1012.60 1012.58 1012.51 1012.40 1012.25 1012.04 1011.79 1011.49 1011.15 1010.77 1010.36 1009.93 1009.49 1009.06 1008.66 1008.29 1007.96 1007.68 1007.44
1009.42 1009.62 1009.84 1010.09 1010.35 1010.63 1010.90 1011.17 1011.41 1011.63 1011.80 1011.94 1012.03 1012.08 1012.09 1012.08 1012.06 1012.02 1012.00 1011.98 1011.97 1011.97 1011.98 1012.00 1012.01 1012.01 1011.99 1011.95 1011.87 1011.75 1011.58 1011.35 1011.08 1010.75 1010.38 1009.98 1009.57 1009.16 1008.77 1008.43 1008.13 1007.88 1007.68
Thickness
5808 5808 5806 5805 5802 5798 5795 5792 5789 5788 5786 5782 5779 5777 5775 5775 5776 5776 5775 5774 5773 5771 5770 5767 5765 5764 5761 5759 5758 5756 5753 5752 5752 5748 5745 5747 5749 5749 5749 5748 5746 5745 5745
5804 5805 5805 5804 5801 5798 5795 5793 5790 5789 5787 5785 5782 5780 5778 5776 5776 5776 5775 5774 5773 5771 5770 5767 5765 5763 5760 5758 5757 5755 5751 5750 5750 5745 5739 5735 5738 5742 5747 5745 5743 5742 5742
5806 5805 5804 5803 5802 5799 5797 5796 5792 5790 5789 5787 5784 5781 5778 5776 5774 5773 5773 5774 5773 5771 5769 5767 5765 5763 5761 5758 5756 5755 5751 5746 5747 5747 5740 5731 5727 5731 5738 5740 5740 5739 5738
5811 5808 5806 5803 5802 5801 5800 5797 5794 5792 5790 5788 5784 5779 5775 5771 5772 5773 5773 5773 5773 5771 5769 5767 5765 5763 5761 5759 5757 5755 5752 5748 5743 5744 5743 5740 5736 5728 5726 5732 5735 5736 5735
5815 5812 5810 5808 5806 5804 5802 5799 5795 5792 5791 5789 5785 5781 5777 5775 5774 5774 5772 5772 5772 5771 5769 5767 5765 5763 5760 5758 5757 5754 5752 5748 5744 5742 5740 5738 5735 5732 5725 5721 5726 5730 5732
5816 5814 5813 5810 5806 5805 5802 5799 5795 5792 5791 5789 5786 5782 5779 5776 5773 5772 5771 5770 5770 5769 5768 5767 5764 5762 5760 5758 5756 5753 5751 5748 5745 5742 5740 5736 5732 5729 5726 5721 5721 5721 5726
5816 5812 5810 5807 5805 5803 5802 5799 5796 5792 5791 5789 5786 5784 5781 5778 5774 5772 5771 5769 5767 5767 5766 5765 5763 5761 5759 5757 5755 5752 5748 5746 5743 5741 5739 5737 5734 5732 5728 5723 5719 5718 5721
5818 5815 5813 5811 5808 5806 5803 5799 5796 5793 5791 5789 5786 5785 5783 5779 5776 5774 5772 5769 5768 5767 5766 5764 5762 5760 5758 5756 5753 5750 5747 5744 5742 5740 5738 5735 5734 5732 5729 5724 5718 5713 5713
5817 5815 5814 5812 5810 5807 5804 5801 5796 5792 5790 5789 5787 5784 5782 5780 5777 5775 5773 5770 5768 5767 5764 5762 5759 5757 5756 5754 5751 5747 5744 5742 5740 5738 5736 5734 5733 5731 5729 5725 5721 5713 5706
5815 5814 5813 5812 5811 5809 5806 5802 5798 5794 5791 5789 5786 5784 5781 5779 5776 5774 5771 5769 5767 5765 5763 5760 5758 5755 5753 5751 5748 5745 5743 5740 5737 5735 5733 5731 5730 5728 5726 5724 5720 5716 5710
5814 5813 5812 5811 5810 5807 5804 5800 5796 5792 5789 5787 5784 5781 5779 5777 5774 5772 5770 5768 5766 5763 5760 5758 5756 5753 5750 5748 5745 5742 5740 5736 5734 5732 5730 5728 5726 5724 5722 5720 5717 5714 5710
5812 5811 5809 5807 5804 5802 5801 5798 5794 5790 5788 5785 5781 5778 5776 5774 5771 5769 5767 5765 5763 5761 5758 5756 5753 5750 5748 5745 5742 5739 5737 5733 5730 5728 5726 5724 5723 5720 5718 5716 5714 5711 5709
5806 5805 5803 5801 5799 5797 5796 5794 5791 5788 5785 5782 5777 5773 5771 5770 5768 5766 5764 5762 5760 5757 5754 5752 5749 5746 5744 5742 5739 5736 5733 5730 5727 5725 5722 5720 5718 5715 5713 5711 5709 5707 5706
5800 5798 5796 5795 5795 5794 5792 5789 5787 5785 5782 5778 5773 5769 5768 5767 5765 5763 5761 5758 5756 5753 5750 5748 5745 5743 5741 5738 5736 5733 5730 5727 5725 5722 5719 5717 5714 5711 5709 5707 5704 5702 5699
5793 5793 5792 5791 5790 5789 5786 5784 5782 5781 5778 5773 5770 5767 5766 5764 5762 5759 5756 5754 5751 5749 5746 5744 5741 5739 5737 5735 5732 5729 5726 5723 5720 5718 5716 5714 5712 5710 5707 5704 5701 5698 5693
5789 5789 5789 5788 5786 5784 5782 5779 5777 5776 5773 5769 5766 5764 5761 5759 5756 5754 5751 5748 5746 5744 5742 5739 5736 5734 5733 5731 5729 5725 5721 5719 5716 5713 5711 5709 5707 5706 5703 5701 5698 5695 5690
5786 5785 5785 5785 5784 5782 5779 5775 5773 5770 5767 5764 5761 5759 5756 5753 5751 5749 5745 5743 5740 5738 5736 5734 5732 5729 5728 5727 5724 5721 5717 5714 5712 5709 5706 5705 5703 5700 5697 5695 5693 5691 5689
5782 5782 5782 5781 5781 5779 5776 5773 5769 5765 5762 5758 5756 5754 5751 5748 5745 5742 5740 5738 5736 5733 5730 5728 5726 5724 5723 5722 5719 5717 5713 5709 5706 5704 5702 5699 5697 5695 5691 5689 5686 5684 5682
5780 5779 5779 5778 5776 5774 5771 5767 5763 5759 5755 5752 5750 5748 5745 5742 5739 5736 5734 5732 5730 5727 5724 5723 5720 5717 5717 5716 5714 5711 5706 5702 5700 5698 5696 5694 5691 5690 5686 5682 5679 5677 5676
5776 5775 5774 5772 5768 5767 5765 5759 5755 5751 5749 5747 5745 5743 5740 5736 5734 5731 5729 5727 5724 5721 5718 5716 5714 5712 5710 5709 5707 5704 5700 5695 5693 5692 5690 5689 5686 5683 5680 5676 5672 5669 5669
5770 5769 5767 5763 5760 5760 5757 5751 5748 5745 5744 5743 5740 5737 5734 5731 5728 5726 5724 5721 5717 5714 5711 5708 5707 5705 5704 5703 5701 5698 5693 5690 5687 5684 5682 5681 5680 5677 5674 5671 5668 5666 5665
5761 5760 5757 5754 5753 5752 5747 5742 5739 5739 5738 5735 5732 5729 5727 5725 5723 5719 5716 5713 5709 5705 5702 5700 5698 5697 5697 5695 5693 5691 5688 5685 5680 5677 5676 5675 5673 5670 5667 5664 5663 5661 5658
5751 5751 5747 5744 5742 5741 5738 5732 5731 5731 5729 5726 5723 5720 5718 5715 5714 5710 5706 5703 5700 5696 5694 5692 5689 5688 5688 5686 5684 5683 5680 5677 5673 5671 5670 5667 5665 5662 5660 5658 5657 5654 5651
5741 5740 5737 5732 5729 5728 5727 5725 5724 5722 5719 5715 5713 5710 5707 5705 5703 5700 5697 5693 5690 5687 5685 5684 5681 5680 5679 5676 5675 5673 5671 5668 5665 5662 5661 5659 5657 5654 5652 5651 5650 5647 5645
5731 5729 5725 5721 5719 5718 5717 5716 5715 5713 5709 5706 5703 5701 5698 5695 5693 5691 5689 5687 5685 5683 5680 5678 5675 5672 5671 5670 5668 5665 5662 5659 5656 5653 5650 5648 5646 5645 5644 5644 5643 5641 5639
5721 5718 5715 5713 5711 5710 5707 5707 5706 5703 5700 5696 5694 5691 5688 5686 5684 5681 5679 5679 5677 5676 5675 5673 5670 5668 5666 5664 5660 5658 5655 5652 5648 5644 5641 5639 5638 5638 5637 5637 5636 5635 5634